Vorticity
nan nan nan nan nan nan nan nan nan nan nan nan nan nan nan nan nan nan nan nan nan nan nan nan nan nan nan nan nan nan nan nan nan nan nan nan nan nan nan nan nan nan nan nan nan
nan 7 7 7 7 8 7 8 7 7 7 7 7 7 8 10 16 18 12 9 10 6 2 7 6 4 2 9 12 -2 9 5 4 9 8 10 5 12 10 2 7 12 17 13 nan
nan 7 7 7 8 7 8 7 7 7 8 7 7 8 8 12 16 21 12 7 7 1 1 5 7 4 9 11 -0 -3 17 4 7 3 7 14 11 8 10 10 9 12 8 6 nan
nan 7 7 7 8 8 8 7 7 7 7 7 7 9 14 12 9 13 14 4 3 5 7 6 7 9 6 7 5 7 8 5 10 8 1 4 10 7 5 15 18 16 10 8 nan
nan 7 7 7 8 8 8 8 8 8 8 8 7 11 16 7 11 12 7 7 5 7 11 4 9 12 5 5 10 9 2 10 3 5 10 5 6 4 9 8 13 12 10 7 nan
nan 7 7 7 8 8 8 8 8 8 9 9 8 14 12 2 13 14 7 4 7 5 8 5 2 6 16 9 5 8 3 9 7 7 11 4 10 8 8 9 9 9 8 8 nan
nan 8 7 7 8 8 8 8 8 9 10 11 12 10 8 16 9 10 8 5 9 7 1 6 6 2 10 14 1 5 11 9 10 3 9 8 10 11 9 8 6 7 8 9 nan
nan 8 8 8 8 8 8 9 10 12 16 18 12 6 6 17 9 10 8 8 7 5 5 9 6 10 5 7 12 13 17 1 19 3 4 17 9 10 7 7 6 6 7 9 nan
nan 7 7 8 8 9 8 10 20 15 17 16 7 6 6 6 14 11 9 7 4 4 4 4 9 10 14 10 12 8 12 15 1 6 8 10 3 9 10 5 8 7 7 7 nan
nan 7 7 8 8 8 14 21 20 18 12 1 6 11 22 11 14 10 8 6 7 5 2 7 9 12 9 20 4 7 -1 16 11 10 -2 1 12 8 10 8 8 8 8 8 nan
nan 7 7 8 8 9 23 25 14 14 6 3 8 7 7 12 14 10 8 6 7 6 8 8 7 14 12 7 -1 10 9 7 8 12 8 9 -0 9 14 13 13 13 8 8 nan
nan 7 9 9 8 18 19 3 4 10 20 13 -0 4 4 10 6 10 5 5 7 5 10 4 9 7 8 2 14 17 5 5 6 10 6 5 0 6 8 7 13 18 14 10 nan
nan 8 9 8 22 28 8 7 1 11 16 19 19 8 2 5 8 11 5 5 5 7 7 0 2 11 10 5 13 7 8 3 6 5 8 5 13 9 5 5 8 13 14 17 nan
nan 8 6 21 23 13 22 10 3 9 17 30 15 17 13 4 12 9 11 2 3 13 2 8 2 9 2 5 14 11 7 4 8 4 7 6 14 16 4 7 5 7 16 21 nan
nan 8 13 19 18 6 9 6 11 11 11 21 10 12 20 7 6 16 7 3 4 4 6 7 8 5 6 8 6 8 9 5 3 8 11 14 4 12 11 7 4 3 10 10 nan
nan 7 20 24 11 5 2 12 12 7 19 6 8 11 10 9 5 15 6 6 6 7 6 -2 17 11 9 5 -2 2 12 11 6 7 12 18 13 8 11 7 5 4 9 10 nan
nan 11 15 11 8 10 14 12 7 6 10 16 10 13 9 10 10 9 12 7 4 9 9 11 6 2 10 12 3 5 10 10 13 7 9 13 4 11 16 5 5 6 8 9 nan
nan 30 27 10 3 5 10 9 6 9 2 3 17 16 13 7 13 4 4 8 7 1 5 12 9 10 5 6 10 9 0 2 5 5 9 3 11 11 4 7 6 8 5 8 nan
nan 32 8 17 11 10 12 9 5 2 11 10 8 13 16 9 13 6 8 8 8 6 1 5 5 18 16 8 5 1 4 4 4 9 8 2 15 13 2 5 5 5 8 10 nan
nan 14 20 16 13 7 9 8 1 8 9 10 10 16 11 15 10 8 6 10 12 8 3 -1 14 16 9 6 12 9 8 14 6 3 6 10 9 14 13 7 5 7 6 8 nan
nan 9 19 12 6 9 10 10 10 0 7 6 12 6 16 19 11 9 8 7 14 11 11 4 9 11 4 5 9 6 6 1 3 11 15 11 9 17 15 7 5 9 8 6 nan
nan 14 10 8 7 8 9 3 10 12 4 7 5 4 13 13 22 16 6 11 14 11 13 11 9 6 4 8 10 5 14 9 7 6 1 6 16 18 13 9 10 9 5 5 nan
nan 15 14 7 6 11 7 6 7 14 4 10 5 4 7 12 10 15 12 20 11 9 16 17 9 9 11 8 12 9 9 5 8 13 7 8 10 11 8 9 14 8 7 6 nan
nan 15 12 9 1 10 19 14 5 6 10 9 8 7 6 9 5 13 14 10 9 6 5 15 16 9 5 2 19 18 7 9 9 7 10 7 9 13 7 6 8 5 6 7 nan
nan 5 12 16 14 7 8 15 15 8 12 11 12 8 9 7 10 7 11 3 6 12 3 9 7 7 7 11 5 9 12 11 7 6 8 9 11 12 14 9 8 8 7 6 nan
nan 7 7 9 9 18 18 7 11 10 10 11 6 14 17 8 8 10 10 8 10 5 10 9 6 7 12 12 2 9 9 6 5 12 10 6 7 7 19 25 8 7 7 6 nan
nan nan nan nan nan nan nan nan nan nan nan nan nan nan nan nan nan nan nan nan nan nan nan nan nan nan nan nan nan nan nan nan nan nan nan nan nan nan nan nan nan nan nan nan nan
CAPE
1 1 1 1 1 1 0 0 0 0 0 0 0 0 0 0 0 0 0 0 0 0 0 12 426 876 768 1160 1366 1224 801 218 283 204 209 294 284 277 259 78 92 122 47 536 59
0 0 0 0 0 0 0 0 0 0 0 0 0 0 0 0 0 0 0 0 0 161 0 291 1360 1382 1776 1503 1291 221 786 169 386 368 298 237 242 378 463 208 284 116 413 394 49
0 0 0 0 0 0 0 0 0 0 0 0 0 0 0 0 0 9 0 0 23 93 0 821 1282 1210 1451 1144 1196 433 251 165 274 379 282 73 57 243 504 479 376 266 321 302 171
0 0 0 0 0 0 0 0 0 0 0 0 0 0 0 0 86 28 0 0 35 0 201 820 813 933 939 1008 863 810 147 177 199 329 417 273 17 112 84 146 266 347 304 164 219
0 0 0 0 0 0 0 0 0 0 0 0 0 0 0 0 0 0 26 0 0 0 625 751 925 923 874 612 490 577 229 194 223 378 480 396 231 15 40 166 362 389 260 85 121
1 1 1 1 1 1 0 1 0 0 0 0 0 0 0 0 0 0 0 0 0 89 800 789 989 925 1230 792 392 257 275 287 172 348 540 660 335 239 268 524 687 411 294 121 52
2 2 2 1 1 1 0 0 0 0 0 0 0 0 0 0 0 20 0 0 10 484 888 809 537 659 680 662 545 340 358 309 274 331 475 601 429 597 530 817 1038 582 451 214 26
3 3 3 3 2 1 1 0 0 0 0 0 0 0 0 0 0 8 0 0 106 672 958 651 446 332 463 697 435 306 470 347 153 230 455 611 392 495 841 1091 1238 1123 564 352 99
4 3 2 2 1 1 1 0 0 0 0 0 0 0 0 0 0 5 0 180 554 760 607 429 219 406 469 472 293 263 198 196 179 206 288 158 238 401 683 1015 1258 1348 1057 590 354
2 2 2 3 4 2 0 0 0 0 0 0 0 0 0 0 0 38 156 664 752 734 555 404 384 474 503 409 254 323 383 156 247 49 111 196 297 343 298 538 974 1210 1331 1036 715
1 2 2 2 4 2 0 0 0 0 0 0 0 0 0 0 0 191 530 628 243 430 731 355 458 353 304 170 4 401 193 178 68 102 149 301 165 100 212 136 401 923 1231 1299 1126
1 2 2 3 1 1 0 0 0 0 0 0 0 0 0 0 0 14 600 291 339 401 368 245 300 351 253 111 168 215 187 243 49 28 152 167 189 30 0 0 13 291 785 1098 1327
1 2 2 2 1 0 0 0 0 0 0 0 0 0 0 0 0 0 98 324 360 381 434 363 353 293 175 247 194 302 159 169 71 48 0 0 5 50 14 0 1 11 169 721 1162
2 1 1 1 0 0 0 0 0 0 0 0 0 0 0 0 0 0 0 100 112 371 473 303 277 230 259 263 247 415 156 24 4 4 45 137 110 164 29 0 0 53 98 84 480
2 2 2 3 0 0 0 0 0 0 0 0 0 0 0 0 0 0 0 69 32 142 327 338 280 166 329 368 167 62 38 44 31 27 118 86 35 107 0 0 0 38 193 483 385
2 3 3 0 0 0 0 0 0 0 0 0 0 0 0 0 0 0 0 3 0 14 116 207 216 161 232 402 25 99 30 117 154 102 205 215 94 88 0 0 0 28 308 707 880
1 2 5 0 0 0 0 0 0 0 0 0 0 0 0 0 0 0 0 0 0 1 55 58 87 23 44 220 240 135 206 446 414 275 224 108 12 29 0 2 36 120 491 770 762
0 0 0 0 0 0 0 0 0 0 0 0 0 0 0 0 0 0 0 0 0 3 62 70 208 100 77 77 297 328 347 529 407 369 170 100 127 0 79 49 182 337 801 893 865
0 0 0 0 0 0 0 0 0 0 0 0 0 0 0 0 0 0 0 41 48 55 120 145 260 192 134 20 13 313 524 398 319 183 245 236 228 43 7 110 388 531 813 827 1016
0 0 0 0 0 0 0 0 0 0 0 0 0 0 0 0 0 0 1 33 72 108 185 230 176 83 6 0 0 28 183 308 285 272 223 178 241 261 28 355 439 715 837 928 930
0 0 0 0 0 0 0 0 0 0 0 0 0 0 0 0 0 0 1 14 8 72 199 152 165 61 0 0 0 11 4 94 148 103 169 253 259 249 186 379 501 830 858 782 707
0 0 0 0 0 0 0 0 0 0 0 0 0 0 0 0 0 0 2 1 0 0 0 0 26 122 42 0 0 0 12 7 28 28 0 1 21 11 89 193 206 1267 1180 1483 1160
0 0 0 0 0 0 0 0 0 0 0 0 0 0 0 0 0 0 0 2 0 0 0 0 0 83 49 2 1 0 0 0 0 0 0 1 67 312 507 469 700 1856 1765 2312 1521
0 0 0 0 0 0 0 0 0 0 0 0 0 0 0 0 0 0 0 0 0 0 0 0 0 0 12 11 8 4 0 0 0 0 0 0 0 517 863 787 1586 2040 2466 2079 1508
0 0 1 0 0 0 0 0 0 0 0 0 0 0 0 0 0 0 0 0 0 0 0 0 0 0 0 0 0 0 0 0 0 0 0 0 6 90 746 955 1708 1833 1815 1504 1395
0 0 0 0 0 0 0 0 0 0 0 0 0 0 0 0 0 0 0 0 0 0 0 0 0 0 0 0 0 0 0 0 0 0 0 0 0 4 13 643 1665 1794 1716 1588 1152
0 0 0 0 0 0 0 0 0 0 0 0 0 0 0 0 0 0 0 0 0 0 0 0 0 0 0 0 0 0 0 0 0 0 0 0 5 54 87 918 1630 1303 1401 1038 457